This demonstration page uses our WeatherBlox Daily Observations layout. Learn more.

Left ArrowRight Arrow

44.8408, -93.29828

Hourly Observations for December 11, 2017

Temp ( °F °C ) Dew Point ( °F °C ) Humidity (%) Winds ( mph kmh ) Pressure ( in mb ) Visibility ( mi km ) Precip ( " mm )
12:28 am 00:28 Cloudy with Light Snow 26 -3.3 23 -5 88 88 SSE 5 7 30.00 1016 2 3 0.01 0.25
12:37 am 00:37 Mostly Cloudy with Light Snow 26 -3.3 24 -4.4 92 92 S 6 9 29.97 1015 1 1 0.01 0.25
12:48 am 00:48 Mostly Cloudy with Snow 25 -4 25 -4 100 100 S 5 7 29.97 1015 1 1 0.03 0.76
12:53 am 00:53 Mostly Cloudy with Snow 26 -3.3 25 -3.9 96 96 S 5 7 29.95 1014 1 1 0.03 0.76
1:49 am 01:49 Cloudy with Light Snow 25 -4 25 -4 100 100 SSE 7 11 29.94 1014 1 2 0.05 1.27
1:50 am 01:50 Cloudy with Light Snow 25 -3.9 25 -3.9 100 100 SSE 6 9 29.91 1013 1 2 0.05 1.27
1:59 am 01:59 Cloudy with Light Snow 25 -3.9 25 -3.9 100 100 SE 8 13 29.94 1014 2 2 0.00 0.03
2:14 am 02:14 Cloudy with Light Snow 25 -3.9 25 -3.9 100 100 SSE 7 11 29.91 1013 3 5 0.00 0.03
2:38 am 02:38 Cloudy with Mist and Fog 26 -3.3 25 -3.9 96 96 S 8 13 29.91 1013 4 6 0.00 0.03
2:53 am 02:53 Cloudy 26 -3.3 25 -3.9 96 96 SSE 7 11 29.88 1012 7 11 0.00 0.03
3:04 am 03:04 Cloudy 26 -3.3 25 -3.9 96 96 SSE 8 13 29.88 1012 8 13 0.00 0.00
3:53 am 03:53 Cloudy 27 -2.8 25 -3.9 92 92 SSE 6 9 29.83 1010 8 13 0.00 0.00
4:53 am 04:53 Cloudy 28 -2.2 26 -3.3 92 92 SSE 7 11 29.80 1009 9 14 0.00 0.00
5:53 am 05:53 Cloudy 29 -1.7 27 -2.8 92 92 SE 5 7 29.77 1008 9 14 0.00 0.00
6:41 am 06:41 Cloudy with Light Snow 29 -1.7 27 -2.8 92 92 SSE 5 7 29.80 1009 2 3 0.02 0.51
6:53 am 06:53 Cloudy with Light Snow 29 -1.7 28 -2.2 96 96 SE 7 11 29.75 1008 2 2 0.03 0.76
7:03 am 07:03 Cloudy with Light Freezing Rain 30 -1.1 29 -1.7 96 96 SE 8 13 29.77 1008 3 4 0.03 0.76
7:14 am 07:14 Cloudy with Light Freezing Rain 30 -1.1 29 -1.7 96 96 Calm 29.77 1008 4 6 0.04 1.02
7:22 am 07:22 Cloudy with Mist and Fog 30 -1.1 30 -1.1 100 100 Calm 29.77 1008 5 8 0.04 1.02
7:32 am 07:32 Cloudy with Mist and Fog 30 -1.1 29 -1.7 96 96 WNW 3 6 29.80 1009 5 8 0.04 1.02
7:37 am 07:37 Cloudy with Light Snow 30 -1.1 29 -1.7 96 96 Calm 29.80 1009 2 3 0.04 1.02
7:53 am 07:53 Cloudy with Light Snow 31 -0.6 30 -1.1 96 96 WNW 3 6 29.75 1008 3 5 0.04 1.02
8:09 am 08:09 Cloudy with Mist and Fog 31 -0.6 30 -1.1 96 96 Calm 29.77 1008 6 10 0.00 0.03
8:19 am 08:19 Cloudy with Mist and Fog 31 -0.6 29 -1.7 92 92 Calm 29.77 1008 5 8 0.00 0.03
8:26 am 08:26 Cloudy with Mist and Fog 31 -0.6 29 -1.7 92 92 Calm 29.77 1008 5 8 0.01 0.25
8:30 am 08:30 Cloudy with Light Snow 31 -0.6 30 -1.1 96 96 Calm 29.77 1008 5 8 0.01 0.25
8:37 am 08:37 Cloudy with Mist and Fog 31 -0.6 31 -0.6 100 100 SSW 3 6 29.77 1008 5 8 0.02 0.51
8:45 am 08:45 Cloudy with Mist and Fog 31 -0.6 31 -0.6 100 100 Calm 29.77 1008 5 8 0.02 0.51
8:53 am 08:53 Cloudy with Mist and Fog 31 -0.6 30 -1.1 96 96 Calm 29.75 1007 5 8 0.02 0.51
9:53 am 09:53 Cloudy 33 0.6 32 0 96 96 WNW 6 9 29.78 1008 7 11 0.00 0.00
10:53 am 10:53 Cloudy 34 1.1 32 0 92 92 NNW 15 24 29.80 1009 8 13 0.01 0.25
11:04 am 11:04 Cloudy 34 1.1 31 -0.6 89 89 NNW 15 24 29.83 1010 8 13 0.00 0.00
11:35 am 11:35 Cloudy 35 1.7 31 -0.6 85 85 NNW 16 26 29.85 1011 8 13 0.00 0.00
11:53 am 11:53 Cloudy 35 1.7 31 -0.6 85 85 NNW 16 26 29.83 1010 9 14 0.00 0.00
12:31 pm 12:31 Cloudy 35 1.7 31 -0.6 85 85 N 16 26 29.85 1011 10 16 0.00 0.00
12:53 pm 12:53 Cloudy 35 1.7 30 -1.1 82 82 N 22 35 29.86 1011 10 16 0.00 0.00
1:53 pm 13:53 Cloudy 34 1.1 28 -2.2 79 79 NNW 22 35 29.91 1013 10 16 0.00 0.00
2:53 pm 14:53 Cloudy 34 1.1 28 -2.2 79 79 NNW 18 30 29.96 1015 10 16 0.00 0.00
3:13 pm 15:13 Cloudy 33 0.6 27 -2.8 78 78 N 18 30 30.00 1016 10 16 0.00 0.00
3:43 pm 15:43 Cloudy 32 0 25 -3.9 75 75 N 22 35 30.00 1016 10 16 0.00 0.00
3:53 pm 15:53 Cloudy 31 -0.6 23 -5 72 72 N 20 31 30.02 1017 10 16 0.00 0.00
4:40 pm 16:40 Cloudy 29 -1.7 21 -6.1 72 72 N 22 35 30.06 1018 10 16 0.00 0.00
4:53 pm 16:53 Cloudy 29 -1.7 21 -6.1 72 72 N 15 24 30.07 1018 10 16 0.00 0.00
5:32 pm 17:32 Mostly Cloudy 27 -2.8 18 -7.8 69 69 NNW 15 24 30.09 1019 10 16 0.00 0.00
5:53 pm 17:53 Mostly Cloudy 27 -2.8 18 -7.8 69 69 NNW 20 31 30.12 1020 10 16 0.00 0.00
6:53 pm 18:53 Mostly Cloudy 25 -3.9 17 -8.3 72 72 NNW 17 28 30.17 1022 10 16 0.00 0.00
7:53 pm 19:53 Mostly Clear 22 -5.6 13 -10.6 68 68 NNW 16 26 30.20 1023 10 16 0.00 0.00
8:53 pm 20:53 Clear 21 -6.1 12 -11.1 68 68 NNW 17 28 30.22 1024 10 16 0.00 0.00
9:53 pm 21:53 Clear 20 -6.7 10 -12.2 65 65 NNW 13 20 30.24 1024 10 16 0.00 0.00
10:53 pm 22:53 Mostly Clear 18 -7.8 11 -11.7 74 74 NW 21 33 30.26 1025 10 16 0.00 0.00
11:53 pm 23:53 Clear 16 -8.9 10 -12.2 77 77 NW 14 22 30.27 1025 10 16 0.00 0.00

Powered by AerisWeather